STARLINK-35739

Last updated on Fri Dec 19 2025 00:02:10 GMT+0000 (Coordinated Universal Time)

1 67053U 25294Z 25351.83335648 -.01411628 59514-3 -31909-2 0 9995 2 67053 43.0004 151.2340 0001692 277.5416 157.5684 15.96745544 2121
UTC large
Height (km)
Speed (km/s)
/
Latitude / Longitude
Inclination (degrees)
Orbital Period (minutes)
Azimuth
Elevation
Range (km)
Doppler Factor

Next 0 passes for location: London (51.5072 / 0.1276)

Sorry there are no passes over London.